Weather in Rumyancevo

Russia / Moscow Oblast     55°38′02″N   37°25′31″E
temp.,
°C
wind,
m/s
gust,
m/s
humid.,
%
clouds,
%
prec.,
mm/h
press.,
hPa
HPBL,
m
27 january, wed
wed2700:000sse7149199 0.2 10061084
03:000sse7149699 0.5 10041176
06:00+1s71588100 0.5 10021268
09:00−2s71487100 0.6 10021062
12:00−1ssw7138799 0.1 10041101
15:00−1ssw5118899 0.1 1006908
18:00−1ssw41090100 0.1 1007557
21:00−4ssw359499 0.1 1007127
28 january, thu
thu2800:00−6ssw129499 0.0 100821
03:00−6sse119499 0.0 100821
06:00−4e2396100 0.1 1007107
09:00−3ene3697100 1.6 1006228
12:00−1e2498100 0.9 1005185
15:00+1sse36100100 1.5 1004200
18:00+1se48100100 0.2 1003239
21:00+1se51099100 0.4 1003329
29 january, fri
fri2900:000se51098100 0.4 1002421
03:000se51096100 0.9 1001415
06:00+1se410100100 0.6 999412
09:00+1sse512100100 0.8 998554
12:00+1sse51199100 0.3 997745
15:000sse6118782 0.4 9951080
18:00−2se51296100 0.3 993755
21:00−2sse51194100 1.1 992643
30 january, sat
sat3000:00−2s51094100 0.5 992606
03:00−4ssw4996100 1.1 992666
06:00−5s499599 0.4 993465
09:00−7ssw4109399 0.4 994486
12:00−5ssw51091100 0.1 995580
15:00−5ssw5887100 0.1 996771
18:00−5ssw41092100 0.1 996715
21:00−5s4992100 0.1 996696
31 january, sun
sun3100:00−5sse3796100 0.4 995434
03:00−4se3797100 1.3 993340
06:00−3ese3697100 0.9 990318
09:00−3ne3697100 2.7 987271
12:00−1nne2399100 2.8 985135
15:00−2nnw4698100 6.8 984283
18:00−4nw71394100 2.0 986767
21:00−6w71488100 2.3 991779